Time,TemperatureF,DewpointF,PressureIn,WindDirection,WindDirectionDegrees,WindSpeedMPH,WindSpeedGustMPH,Humidity,HourlyPrecipIn,Conditions,Clouds,dailyrainin,SoftwareType,DateUTC
2013-04-05 00:00:00,51.0,51.0,29.91,NW,310,8.0,11.0,99,-99.99,,,-99.99,,2013-04-05 04:00:00,
2013-04-05 00:22:00,51.0,51.0,29.91,NW,310,8.0,11.0,99,-99.99,,,-99.99,,2013-04-05 04:22:00,
2013-04-05 00:32:00,51.0,51.0,29.91,NW,310,8.0,11.0,99,-99.99,,,-99.99,,2013-04-05 04:32:00,
2013-04-05 00:42:00,51.0,51.0,29.91,NW,310,8.0,11.0,99,-99.99,,,-99.99,,2013-04-05 04:42:00,
2013-04-05 00:52:00,51.0,51.0,29.91,NW,310,8.0,11.0,99,-99.99,,,-99.99,,2013-04-05 04:52:00,
2013-04-05 01:00:00,49.0,49.0,29.91,NW,310,5.0,7.0,100,-99.99,,,-99.99,,2013-04-05 05:00:00,
2013-04-05 01:21:00,49.0,49.0,29.91,NW,310,5.0,7.0,100,-99.99,,,-99.99,,2013-04-05 05:21:00,
2013-04-05 01:31:00,49.0,49.0,29.91,NW,310,5.0,7.0,100,-99.99,,,-99.99,,2013-04-05 05:31:00,
2013-04-05 01:41:00,49.0,49.0,29.91,NW,310,5.0,7.0,100,-99.99,,,-99.99,,2013-04-05 05:41:00,
2013-04-05 01:51:00,49.0,49.0,29.91,NW,310,5.0,7.0,100,-99.99,,,-99.99,,2013-04-05 05:51:00,
2013-04-05 02:00:00,48.0,48.0,29.91,WNW,300,6.0,9.0,100,-99.99,,,-99.99,,2013-04-05 06:00:00,
2013-04-05 02:21:00,48.0,48.0,29.91,WNW,300,6.0,9.0,100,-99.99,,,-99.99,,2013-04-05 06:21:00,
2013-04-05 02:32:00,48.0,48.0,29.91,WNW,300,6.0,9.0,100,-99.99,,,-99.99,,2013-04-05 06:32:00,
2013-04-05 02:41:00,48.0,48.0,29.91,WNW,300,6.0,9.0,100,-99.99,,,-99.99,,2013-04-05 06:41:00,
2013-04-05 02:52:00,48.0,48.0,29.91,WNW,300,6.0,9.0,100,-99.99,,,-99.99,,2013-04-05 06:52:00,
2013-04-05 03:00:00,47.0,47.0,29.91,NW,320,9.0,14.0,100,-99.99,,,-99.99,,2013-04-05 07:00:00,
2013-04-05 03:22:00,47.0,47.0,29.91,NW,320,9.0,14.0,100,-99.99,,,-99.99,,2013-04-05 07:22:00,
2013-04-05 03:31:00,47.0,47.0,29.91,NW,320,9.0,14.0,100,-99.99,,,-99.99,,2013-04-05 07:31:00,
2013-04-05 03:41:00,47.0,47.0,29.91,NW,320,9.0,14.0,100,-99.99,,,-99.99,,2013-04-05 07:41:00,
2013-04-05 03:52:00,47.0,47.0,29.91,NW,320,9.0,14.0,100,-99.99,,,-99.99,,2013-04-05 07:52:00,
2013-04-05 04:00:00,47.0,47.0,29.90,NNW,330,9.0,14.0,99,-99.99,,,-99.99,,2013-04-05 08:00:00,
2013-04-05 04:21:00,47.0,47.0,29.90,NNW,330,9.0,14.0,99,-99.99,,,-99.99,,2013-04-05 08:21:00,
2013-04-05 04:32:00,47.0,47.0,29.90,NNW,330,9.0,14.0,99,-99.99,,,-99.99,,2013-04-05 08:32:00,
2013-04-05 04:41:00,47.0,47.0,29.90,NNW,330,9.0,14.0,99,-99.99,,,-99.99,,2013-04-05 08:41:00,
2013-04-05 04:52:00,47.0,47.0,29.90,NNW,330,9.0,14.0,99,-99.99,,,-99.99,,2013-04-05 08:52:00,
2013-04-05 05:00:00,47.0,46.0,29.89,NW,320,9.0,11.0,99,-99.99,,,-99.99,,2013-04-05 09:00:00,
2013-04-05 05:22:00,47.0,46.0,29.89,NW,320,9.0,11.0,99,-99.99,,,-99.99,,2013-04-05 09:22:00,
2013-04-05 05:32:00,47.0,46.0,29.89,NW,320,9.0,11.0,99,-99.99,,,-99.99,,2013-04-05 09:32:00,
2013-04-05 05:42:00,47.0,46.0,29.89,NW,320,9.0,11.0,99,-99.99,,,-99.99,,2013-04-05 09:42:00,
2013-04-05 05:52:00,47.0,46.0,29.89,NW,320,9.0,11.0,99,-99.99,,,-99.99,,2013-04-05 09:52:00,
2013-04-05 06:00:00,46.0,46.0,29.91,NW,320,6.0,9.0,100,-99.99,,,-99.99,,2013-04-05 10:00:00,
2013-04-05 06:22:00,46.0,46.0,29.91,NW,320,6.0,9.0,100,-99.99,,,-99.99,,2013-04-05 10:22:00,
2013-04-05 06:32:00,46.0,46.0,29.91,NW,320,6.0,9.0,100,-99.99,,,-99.99,,2013-04-05 10:32:00,
2013-04-05 06:42:00,46.0,46.0,29.91,NW,320,6.0,9.0,100,-99.99,,,-99.99,,2013-04-05 10:42:00,
2013-04-05 06:52:00,46.0,46.0,29.91,NW,320,6.0,9.0,100,-99.99,,,-99.99,,2013-04-05 10:52:00,
2013-04-05 07:00:00,45.0,45.0,29.89,North,360,8.0,9.0,100,-99.99,,,-99.99,,2013-04-05 11:00:00,
2013-04-05 07:21:00,45.0,45.0,29.89,North,360,8.0,9.0,100,-99.99,,,-99.99,,2013-04-05 11:21:00,
2013-04-05 07:32:00,45.0,45.0,29.89,North,360,8.0,9.0,100,-99.99,,,-99.99,,2013-04-05 11:32:00,
2013-04-05 07:41:00,45.0,45.0,29.89,North,360,8.0,9.0,100,-99.99,,,-99.99,,2013-04-05 11:41:00,
2013-04-05 07:51:00,45.0,45.0,29.89,North,360,8.0,9.0,100,-99.99,,,-99.99,,2013-04-05 11:51:00,
2013-04-05 08:00:00,46.0,46.0,29.94,NNW,340,9.0,11.0,99,-99.99,,,-99.99,,2013-04-05 12:00:00,
2013-04-05 08:21:00,46.0,46.0,29.94,NNW,340,9.0,11.0,99,-99.99,,,-99.99,,2013-04-05 12:21:00,
2013-04-05 08:32:00,46.0,46.0,29.94,NNW,340,9.0,11.0,99,-99.99,,,-99.99,,2013-04-05 12:32:00,
2013-04-05 08:42:00,46.0,46.0,29.94,NNW,340,9.0,11.0,99,-99.99,,,-99.99,,2013-04-05 12:42:00,
2013-04-05 08:51:00,46.0,46.0,29.94,NNW,340,9.0,11.0,99,-99.99,,,-99.99,,2013-04-05 12:51:00,
2013-04-05 09:21:00,45.0,45.0,29.99,WNW,300,7.0,9.0,100,-99.99,,,-99.99,,2013-04-05 13:21:00,
2013-04-05 09:31:00,45.0,45.0,29.99,WNW,300,7.0,9.0,100,-99.99,,,-99.99,,2013-04-05 13:31:00,
2013-04-05 09:41:00,45.0,45.0,29.99,WNW,300,7.0,9.0,100,-99.99,,,-99.99,,2013-04-05 13:41:00,
2013-04-05 09:52:00,45.0,45.0,29.99,WNW,300,7.0,9.0,100,-99.99,,,-99.99,,2013-04-05 13:52:00,
2013-04-05 10:00:00,45.0,45.0,29.93,NNW,340,15.0,21.0,99,-99.99,,,-99.99,,2013-04-05 14:00:00,
2013-04-05 10:21:00,45.0,45.0,29.93,NNW,340,15.0,21.0,99,-99.99,,,-99.99,,2013-04-05 14:21:00,
2013-04-05 10:42:00,45.0,45.0,29.93,NNW,340,15.0,21.0,99,-99.99,,,-99.99,,2013-04-05 14:42:00,
2013-04-05 10:51:00,45.0,45.0,29.93,NNW,340,15.0,21.0,99,-99.99,,,-99.99,,2013-04-05 14:51:00,
2013-04-05 11:00:00,47.0,46.0,29.95,NNW,340,16.0,20.0,97,-99.99,,,-99.99,,2013-04-05 15:00:00,
2013-04-05 11:21:00,47.0,46.0,29.95,NNW,340,16.0,20.0,97,-99.99,,,-99.99,,2013-04-05 15:21:00,
2013-04-05 11:32:00,47.0,46.0,29.95,NNW,340,16.0,20.0,97,-99.99,,,-99.99,,2013-04-05 15:32:00,
2013-04-05 11:42:00,47.0,46.0,29.95,NNW,340,16.0,20.0,97,-99.99,,,-99.99,,2013-04-05 15:42:00,
2013-04-05 11:52:00,47.0,46.0,29.95,NNW,340,16.0,20.0,97,-99.99,,,-99.99,,2013-04-05 15:52:00,
2013-04-05 12:00:00,50.0,47.0,30.00,North,350,7.0,10.0,89,-99.99,,,-99.99,,2013-04-05 16:00:00,
2013-04-05 12:22:00,50.0,47.0,30.00,North,350,7.0,10.0,89,-99.99,,,-99.99,,2013-04-05 16:22:00,
2013-04-05 12:32:00,50.0,47.0,30.00,North,350,7.0,10.0,89,-99.99,,,-99.99,,2013-04-05 16:32:00,
2013-04-05 12:41:00,50.0,47.0,30.00,North,350,7.0,10.0,89,-99.99,,,-99.99,,2013-04-05 16:41:00,
2013-04-05 12:52:00,50.0,47.0,30.00,North,350,7.0,10.0,89,-99.99,,,-99.99,,2013-04-05 16:52:00,
2013-04-05 13:00:00,51.0,47.0,29.97,NNW,330,7.0,10.0,87,-99.99,,,-99.99,,2013-04-05 17:00:00,
2013-04-05 13:22:00,51.0,47.0,29.97,NNW,330,7.0,10.0,87,-99.99,,,-99.99,,2013-04-05 17:22:00,
2013-04-05 13:31:00,51.0,47.0,29.97,NNW,330,7.0,10.0,87,-99.99,,,-99.99,,2013-04-05 17:31:00,
2013-04-05 13:43:00,51.0,47.0,29.97,NNW,330,7.0,10.0,87,-99.99,,,-99.99,,2013-04-05 17:43:00,
2013-04-05 13:51:00,51.0,47.0,29.97,NNW,330,7.0,10.0,87,-99.99,,,-99.99,,2013-04-05 17:51:00,
2013-04-05 14:00:00,52.0,47.0,29.95,North,350,13.0,16.0,81,-99.99,,,-99.99,,2013-04-05 18:00:00,
2013-04-05 14:21:00,52.0,47.0,29.95,North,350,13.0,16.0,81,-99.99,,,-99.99,,2013-04-05 18:21:00,
2013-04-05 14:31:00,52.0,47.0,29.95,North,350,13.0,16.0,81,-99.99,,,-99.99,,2013-04-05 18:31:00,
2013-04-05 14:42:00,52.0,47.0,29.95,North,350,13.0,16.0,81,-99.99,,,-99.99,,2013-04-05 18:42:00,
2013-04-05 14:52:00,52.0,47.0,29.95,North,350,13.0,16.0,81,-99.99,,,-99.99,,2013-04-05 18:52:00,
2013-04-05 15:00:00,55.0,47.0,29.92,North,360,8.0,10.0,75,-99.99,,,-99.99,,2013-04-05 19:00:00,
2013-04-05 15:21:00,55.0,47.0,29.92,North,360,8.0,10.0,75,-99.99,,,-99.99,,2013-04-05 19:21:00,
2013-04-05 15:31:00,55.0,47.0,29.92,North,360,8.0,10.0,75,-99.99,,,-99.99,,2013-04-05 19:31:00,
2013-04-05 15:41:00,55.0,47.0,29.92,North,360,8.0,10.0,75,-99.99,,,-99.99,,2013-04-05 19:41:00,
2013-04-05 15:51:00,55.0,47.0,29.92,North,360,8.0,10.0,75,-99.99,,,-99.99,,2013-04-05 19:51:00,
2013-04-05 16:00:00,56.0,47.0,29.91,NNE,30,10.0,10.0,72,-99.99,,,-99.99,,2013-04-05 20:00:00,
2013-04-05 16:21:00,56.0,47.0,29.91,NNE,30,10.0,10.0,72,-99.99,,,-99.99,,2013-04-05 20:21:00,
2013-04-05 16:31:00,56.0,47.0,29.91,NNE,30,10.0,10.0,72,-99.99,,,-99.99,,2013-04-05 20:31:00,
2013-04-05 16:42:00,56.0,47.0,29.91,NNE,30,10.0,10.0,72,-99.99,,,-99.99,,2013-04-05 20:42:00,
2013-04-05 16:51:00,56.0,47.0,29.91,NNE,30,10.0,10.0,72,-99.99,,,-99.99,,2013-04-05 20:51:00,
2013-04-05 17:00:00,56.0,50.0,29.92,ENE,60,11.0,14.0,80,-99.99,,,-99.99,,2013-04-05 21:00:00,
2013-04-05 17:22:00,56.0,50.0,29.92,ENE,60,11.0,14.0,80,-99.99,,,-99.99,,2013-04-05 21:22:00,
2013-04-05 17:32:00,56.0,50.0,29.92,ENE,60,11.0,14.0,80,-99.99,,,-99.99,,2013-04-05 21:32:00,
2013-04-05 17:42:00,56.0,50.0,29.92,ENE,60,11.0,14.0,80,-99.99,,,-99.99,,2013-04-05 21:42:00,
2013-04-05 17:52:00,56.0,50.0,29.92,ENE,60,11.0,14.0,80,-99.99,,,-99.99,,2013-04-05 21:52:00,
2013-04-05 18:00:00,55.0,50.0,29.95,NE,50,7.0,8.0,84,-99.99,,,-99.99,,2013-04-05 22:00:00,
2013-04-05 18:22:00,55.0,50.0,29.95,NE,50,7.0,8.0,84,-99.99,,,-99.99,,2013-04-05 22:22:00,
2013-04-05 18:32:00,55.0,50.0,29.95,NE,50,7.0,8.0,84,-99.99,,,-99.99,,2013-04-05 22:32:00,
2013-04-05 18:42:00,55.0,50.0,29.95,NE,50,7.0,8.0,84,-99.99,,,-99.99,,2013-04-05 22:42:00,
2013-04-05 18:52:00,55.0,50.0,29.95,NE,50,7.0,8.0,84,-99.99,,,-99.99,,2013-04-05 22:52:00,
2013-04-05 19:00:00,57.0,48.0,29.96,North,350,9.0,11.0,72,-99.99,,,-99.99,,2013-04-05 23:00:00,
2013-04-05 19:21:00,57.0,48.0,29.96,North,350,9.0,11.0,72,-99.99,,,-99.99,,2013-04-05 23:21:00,
2013-04-05 19:31:00,57.0,48.0,29.96,North,350,9.0,11.0,72,-99.99,,,-99.99,,2013-04-05 23:31:00,
2013-04-05 19:41:00,57.0,48.0,29.96,North,350,9.0,11.0,72,-99.99,,,-99.99,,2013-04-05 23:41:00,
2013-04-05 19:52:00,57.0,48.0,29.96,North,350,9.0,11.0,72,-99.99,,,-99.99,,2013-04-05 23:52:00,
2013-04-05 20:00:00,56.0,49.0,29.99,North,350,9.0,11.0,74,-99.99,,,-99.99,,2013-04-06 00:00:00,
2013-04-05 20:21:00,56.0,49.0,29.99,North,350,9.0,11.0,74,-99.99,,,-99.99,,2013-04-06 00:21:00,
2013-04-05 20:32:00,56.0,49.0,29.99,North,350,9.0,11.0,74,-99.99,,,-99.99,,2013-04-06 00:32:00,
2013-04-05 20:41:00,56.0,49.0,29.99,North,350,9.0,11.0,74,-99.99,,,-99.99,,2013-04-06 00:41:00,
2013-04-05 20:51:00,56.0,49.0,29.99,North,350,9.0,11.0,74,-99.99,,,-99.99,,2013-04-06 00:51:00,
2013-04-05 21:00:00,56.0,49.0,30.01,North,350,8.0,10.0,75,-99.99,,,-99.99,,2013-04-06 01:00:00,
2013-04-05 21:21:00,56.0,49.0,30.01,North,350,8.0,10.0,75,-99.99,,,-99.99,,2013-04-06 01:21:00,
2013-04-05 21:31:00,56.0,49.0,30.01,North,350,8.0,10.0,75,-99.99,,,-99.99,,2013-04-06 01:31:00,
2013-04-05 21:41:00,56.0,49.0,30.01,North,350,8.0,10.0,75,-99.99,,,-99.99,,2013-04-06 01:41:00,
2013-04-05 21:52:00,56.0,49.0,30.01,North,350,8.0,10.0,75,-99.99,,,-99.99,,2013-04-06 01:52:00,
2013-04-05 22:00:00,55.0,49.0,30.03,NNW,330,6.0,8.0,78,-99.99,,,-99.99,,2013-04-06 02:00:00,
2013-04-05 22:21:00,55.0,49.0,30.03,NNW,330,6.0,8.0,78,-99.99,,,-99.99,,2013-04-06 02:21:00,
2013-04-05 22:31:00,55.0,49.0,30.03,NNW,330,6.0,8.0,78,-99.99,,,-99.99,,2013-04-06 02:31:00,
2013-04-05 22:52:00,55.0,49.0,30.03,NNW,330,6.0,8.0,78,-99.99,,,-99.99,,2013-04-06 02:52:00,
2013-04-05 23:00:00,53.0,49.0,30.04,NW,320,5.0,6.0,85,-99.99,,,-99.99,,2013-04-06 03:00:00,
2013-04-05 23:21:00,53.0,49.0,30.04,NW,320,5.0,6.0,85,-99.99,,,-99.99,,2013-04-06 03:21:00,
2013-04-05 23:32:00,53.0,49.0,30.04,NW,320,5.0,6.0,85,-99.99,,,-99.99,,2013-04-06 03:32:00,
2013-04-05 23:42:00,53.0,49.0,30.04,NW,320,5.0,6.0,85,-99.99,,,-99.99,,2013-04-06 03:42:00,
2013-04-05 23:52:00,53.0,49.0,30.04,NW,320,5.0,6.0,85,-99.99,,,-99.99,,2013-04-06 03:52:00,